Previsão horária em Aalst

Hoje, 28 Outubro, Quarta-feira

Tempo Temperatura Precipitação Vento Pressão Humidade
00:00 +10°C° 0 mm 5 m/s 751 mmHg 87%
01:00 +10°C° 0.2 mm 5 m/s 751 mmHg 87%
02:00 +9°C° 0.2 mm 5 m/s 751 mmHg 88%
03:00 +9°C° 0.2 mm 5 m/s 751 mmHg 88%
04:00 +9°C° 0.3 mm 5 m/s 752 mmHg 87%
05:00 +9°C° 0.3 mm 6 m/s 752 mmHg 86%
06:00 +9°C° 0.3 mm 6 m/s 752 mmHg 85%
07:00 +9°C° 0.1 mm 6 m/s 753 mmHg 83%
08:00 +10°C° 0.1 mm 7 m/s 753 mmHg 81%
09:00 +10°C° 0.1 mm 8 m/s 754 mmHg 79%
10:00 +11°C° 0.1 mm 8 m/s 754 mmHg 76%
11:00 +11°C° 0.1 mm 8 m/s 754 mmHg 72%
12:00 +12°C° 0.1 mm 8 m/s 753 mmHg 68%
13:00 +11°C° 0.6 mm 8 m/s 754 mmHg 71%
14:00 +11°C° 0.6 mm 8 m/s 754 mmHg 74%
15:00 +11°C° 0.6 mm 7 m/s 754 mmHg 77%
16:00 +10°C° 0.5 mm 7 m/s 754 mmHg 79%
17:00 +10°C° 0.5 mm 7 m/s 753 mmHg 82%
18:00 +10°C° 0.5 mm 7 m/s 753 mmHg 84%
19:00 +10°C° 1.2 mm 7 m/s 754 mmHg 84%
20:00 +10°C° 1.2 mm 7 m/s 754 mmHg 84%
21:00 +10°C° 1.2 mm 7 m/s 754 mmHg 84%
22:00 +9°C° 0.4 mm 7 m/s 755 mmHg 83%
23:00 +9°C° 0.4 mm 6 m/s 755 mmHg 82%

Amanhã, 29 Outubro, Quinta-feira

Tempo Temperatura Precipitação Vento Pressão Humidade
00:00 +9°C° 0.4 mm 6 m/s 755 mmHg 81%
01:00 +9°C° 0.1 mm 6 m/s 756 mmHg 80%
02:00 +8°C° 0.1 mm 5 m/s 756 mmHg 80%
03:00 +8°C° 0.1 mm 5 m/s 757 mmHg 80%
04:00 +8°C° 0 mm 5 m/s 757 mmHg 80%
05:00 +7°C° 0 mm 5 m/s 758 mmHg 80%
06:00 +7°C° 0 mm 4 m/s 759 mmHg 80%
07:00 +8°C° 0 mm 4 m/s 759 mmHg 78%
08:00 +10°C° 0 mm 4 m/s 760 mmHg 76%
09:00 +10°C° 0 mm 5 m/s 761 mmHg 74%
10:00 +10°C° 0 mm 5 m/s 761 mmHg 73%
11:00 +12°C° 0 mm 5 m/s 761 mmHg 72%
12:00 +13°C° 0 mm 5 m/s 761 mmHg 71%
13:00 +13°C° 0.1 mm 6 m/s 761 mmHg 76%
14:00 +11°C° 0.1 mm 6 m/s 761 mmHg 81%
15:00 +11°C° 0.1 mm 6 m/s 761 mmHg 85%
16:00 +11°C° 0.5 mm 6 m/s 761 mmHg 86%
17:00 +11°C° 0.5 mm 7 m/s 761 mmHg 87%
18:00 +11°C° 0.5 mm 7 m/s 761 mmHg 88%
19:00 +11°C° 0 mm 7 m/s 761 mmHg 87%
20:00 +12°C° 0 mm 7 m/s 761 mmHg 86%
21:00 +12°C° 0 mm 7 m/s 761 mmHg 85%
22:00 +12°C° 0 mm 7 m/s 761 mmHg 86%
23:00 +12°C° 0 mm 7 m/s 761 mmHg 86%

Depois de amanhã, 30 Outubro, Sexta-feira

Tempo Temperatura Precipitação Vento Pressão Humidade
00:00 +12°C° 0 mm 7 m/s 761 mmHg 86%
01:00 +12°C° 0 mm 7 m/s 761 mmHg 86%
02:00 +12°C° 0 mm 7 m/s 762 mmHg 86%
03:00 +12°C° 0 mm 7 m/s 762 mmHg 86%
04:00 +12°C° 0 mm 7 m/s 762 mmHg 86%
05:00 +12°C° 0 mm 7 m/s 762 mmHg 86%
06:00 +12°C° 0 mm 7 m/s 762 mmHg 87%
07:00 +12°C° 0 mm 7 m/s 762 mmHg 86%
08:00 +14°C° 0 mm 7 m/s 762 mmHg 85%
09:00 +14°C° 0 mm 7 m/s 763 mmHg 85%
10:00 +14°C° 0 mm 7 m/s 763 mmHg 83%
11:00 +15°C° 0 mm 7 m/s 763 mmHg 81%
12:00 +15°C° 0 mm 6 m/s 763 mmHg 79%
13:00 +15°C° 0 mm 6 m/s 764 mmHg 78%
14:00 +15°C° 0 mm 5 m/s 764 mmHg 77%
15:00 +15°C° 0 mm 4 m/s 764 mmHg 77%
16:00 +15°C° 0 mm 4 m/s 764 mmHg 78%
17:00 +15°C° 0 mm 4 m/s 764 mmHg 78%
18:00 +14°C° 0 mm 4 m/s 764 mmHg 79%
19:00 +14°C° 0 mm 4 m/s 764 mmHg 81%
20:00 +13°C° 0 mm 4 m/s 764 mmHg 83%
21:00 +13°C° 0 mm 4 m/s 764 mmHg 85%
22:00 +12°C° 0 mm 4 m/s 764 mmHg 85%
23:00 +12°C° 0 mm 3 m/s 764 mmHg 86%

31 Outubro, Sábado

Tempo Temperatura Precipitação Vento Pressão Humidade
00:00 +11°C° 0 mm 3 m/s 764 mmHg 86%
01:00 +11°C° 0 mm 4 m/s 763 mmHg 88%
02:00 +11°C° 0 mm 4 m/s 763 mmHg 89%
03:00 +10°C° 0 mm 4 m/s 763 mmHg 91%
04:00 +10°C° 0 mm 4 m/s 763 mmHg 91%
05:00 +10°C° 0 mm 4 m/s 763 mmHg 91%
06:00 +9°C° 0 mm 5 m/s 762 mmHg 92%
07:00 +10°C° 0 mm 5 m/s 762 mmHg 87%
08:00 +11°C° 0 mm 6 m/s 762 mmHg 83%
09:00 +13°C° 0 mm 6 m/s 762 mmHg 78%
10:00 +14°C° 0 mm 6 m/s 761 mmHg 74%
11:00 +15°C° 0 mm 7 m/s 761 mmHg 69%
12:00 +16°C° 0 mm 7 m/s 761 mmHg 65%
13:00 +16°C° 0 mm 6 m/s 760 mmHg 67%
14:00 +16°C° 0 mm 6 m/s 760 mmHg 69%
15:00 +16°C° 0 mm 5 m/s 760 mmHg 71%
16:00 +15°C° 0 mm 5 m/s 760 mmHg 73%
17:00 +15°C° 0 mm 6 m/s 760 mmHg 74%
18:00 +14°C° 0 mm 6 m/s 760 mmHg 76%
19:00 +14°C° 0 mm 6 m/s 760 mmHg 77%
20:00 +15°C° 0 mm 6 m/s 760 mmHg 78%
21:00 +15°C° 0 mm 6 m/s 760 mmHg 80%
22:00 +14°C° 0 mm 6 m/s 760 mmHg 83%
23:00 +14°C° 0 mm 6 m/s 759 mmHg 86%

1 Novembro, Domingo

Tempo Temperatura Precipitação Vento Pressão Humidade
00:00 +14°C° 0 mm 6 m/s 759 mmHg 89%
01:00 +14°C° 0 mm 6 m/s 759 mmHg 88%
02:00 +14°C° 0 mm 7 m/s 758 mmHg 88%
03:00 +14°C° 0 mm 7 m/s 758 mmHg 87%
04:00 +15°C° 0.3 mm 8 m/s 757 mmHg 87%
05:00 +15°C° 0.3 mm 9 m/s 757 mmHg 86%
06:00 +15°C° 0.3 mm 9 m/s 757 mmHg 85%
07:00 +15°C° 0.1 mm 9 m/s 757 mmHg 84%
08:00 +14°C° 0.1 mm 10 m/s 757 mmHg 82%
09:00 +14°C° 0.1 mm 10 m/s 756 mmHg 80%
10:00 +15°C° 0 mm 9 m/s 756 mmHg 80%
11:00 +16°C° 0 mm 9 m/s 756 mmHg 79%
12:00 +16°C° 0 mm 9 m/s 756 mmHg 79%
13:00 +16°C° 0.2 mm 9 m/s 756 mmHg 80%
14:00 +16°C° 0.2 mm 9 m/s 756 mmHg 80%
15:00 +16°C° 0.2 mm 9 m/s 756 mmHg 81%
16:00 +16°C° 0.1 mm 9 m/s 756 mmHg 81%
17:00 +16°C° 0.1 mm 9 m/s 755 mmHg 80%
18:00 +16°C° 0.1 mm 9 m/s 755 mmHg 80%
19:00 +17°C° 0 mm 9 m/s 755 mmHg 79%
20:00 +17°C° 0 mm 9 m/s 755 mmHg 77%
21:00 +17°C° 0 mm 9 m/s 755 mmHg 76%
22:00 +17°C° 0 mm 9 m/s 755 mmHg 76%
23:00 +17°C° 0 mm 9 m/s 755 mmHg 77%

2 Novembro, Segunda-feira

Tempo Temperatura Precipitação Vento Pressão Humidade
00:00 +17°C° 0 mm 9 m/s 755 mmHg 77%
01:00 +17°C° 0 mm 9 m/s 755 mmHg 76%
02:00 +17°C° 0 mm 9 m/s 755 mmHg 75%
03:00 +17°C° 0 mm 9 m/s 754 mmHg 74%
04:00 +17°C° 0 mm 9 m/s 755 mmHg 76%
05:00 +16°C° 0 mm 8 m/s 755 mmHg 77%
06:00 +16°C° 0 mm 8 m/s 755 mmHg 78%
07:00 +16°C° 0 mm 8 m/s 755 mmHg 78%
08:00 +17°C° 0 mm 8 m/s 755 mmHg 77%
09:00 +17°C° 0 mm 8 m/s 756 mmHg 76%
10:00 +17°C° 0 mm 8 m/s 756 mmHg 76%
11:00 +17°C° 0 mm 7 m/s 756 mmHg 75%
12:00 +17°C° 0 mm 6 m/s 756 mmHg 75%
13:00 +16°C° 0.3 mm 5 m/s 756 mmHg 79%
14:00 +15°C° 0.3 mm 5 m/s 756 mmHg 83%
15:00 +14°C° 0.3 mm 4 m/s 756 mmHg 87%
16:00 +13°C° 0.7 mm 4 m/s 757 mmHg 88%
17:00 +12°C° 0.7 mm 3 m/s 757 mmHg 89%
18:00 +12°C° 0.7 mm 2 m/s 757 mmHg 90%
19:00 +12°C° 0.8 mm 2 m/s 758 mmHg 90%
20:00 +12°C° 0.8 mm 2 m/s 758 mmHg 90%
21:00 +12°C° 0.8 mm 1 m/s 758 mmHg 91%
22:00 +12°C° 0.1 mm 2 m/s 759 mmHg 90%
23:00 +12°C° 0.1 mm 2 m/s 759 mmHg 90%
Mostrar mais